Clayton Lake, ME

6:08 AM EDT on July 27, 2017 (GMT -0400)
Clayton Lake

Weather History for K40B - March, 2012

Change the Weather History Date:

Thursday, March 8, 2012

  Actual Average Record
Temperature  
Mean Temperature 50 °F -  
Max Temperature 57 °F 28 °F 57 °F (2012)
Min Temperature 38 °F 3 °F -9 °F (2001)
Degree Days  
Heating Degree Days 14    
Moisture  
Dew Point 36 °F    
Average Humidity 59    
Maximum Humidity 100    
Minimum Humidity 41    
Precipitation  
Precipitation 0.12 in - - ()
Sea Level Pressure  
Sea Level Pressure 29.68 in    
Wind  
Wind Speed 13 mph (SSW)    
Max Wind Speed 20 mph    
Max Gust Speed 38 mph    
Averages and records for this station are not official NWS values.
T = Trace of Precipitation, MM = Missing Value Source: NWS Daily Summary

Daily Weather History Graph

Daily Weather History Graph

Search for Another Location

Airport or City:

Trip Planner

Search our weather history database for the weather conditions in past years. The results will help you decide how hot, cold, wet, or windy it might be!

Date:

Astronomy

Mar. 08, 2012 Rise Set
Actual Time 6:03 AM EST 5:34 PM EST
Civil Twilight 5:33 AM EST 6:04 PM EST
Nautical Twilight 4:58 AM EST 6:39 PM EST
Astronomical Twilight 4:23 AM EST 7:15 PM EST
Moon 6:24 PM EST (3/8) 5:41 AM EST (3/8)
Length of Visible Light 12h 31m
Length of Day
11h 31m
Full, 100% of the Moon is Illuminated
Mar 8
Full
Mar 14
Last Quarter
Mar 22
New
Mar 30
First Quarter
Apr 6
Full

Hourly Weather History & Observations

Time (EST) Temp. Windchill Dew Point Humidity Pressure Visibility Wind Dir Wind Speed Gust Speed Precip Events Conditions
12:25 AM 46.0 °F 41.4 °F 28.0 °F 50% 29.96 in - SSW 9.2 mph 17.3 mph N/A   Unknown
1:25 AM 48.4 °F - 29.3 °F 48% 29.93 in - SSW 12.7 mph 19.6 mph N/A   Unknown
2:25 AM 50.0 °F - 28.9 °F 44% 29.91 in - SSW 15.0 mph 20.7 mph N/A   Unknown
3:25 AM 51.6 °F - 28.8 °F 41% 29.88 in - South 16.1 mph 23.0 mph N/A   Unknown
4:25 AM 51.3 °F - 28.6 °F 42% 29.86 in - SSW 13.8 mph 26.5 mph N/A   Unknown
5:25 AM 49.6 °F - 29.8 °F 47% 29.84 in - SSW 9.2 mph - N/A   Unknown
6:25 AM 44.2 °F 40.3 °F 30.4 °F 58% 29.82 in - Variable 6.9 mph 15.0 mph N/A   Unknown
7:25 AM 52.0 °F - 32.5 °F 48% 29.79 in - SSW 13.8 mph 24.2 mph N/A   Unknown
8:25 AM 52.3 °F - 32.7 °F 47% 29.79 in - SSW 15.0 mph 25.3 mph N/A   Unknown
9:25 AM 52.5 °F - 33.4 °F 48% 29.77 in - SSW 16.1 mph 33.4 mph N/A   Unknown
10:25 AM 55.4 °F - 35.8 °F 48% 29.73 in - SSW 11.5 mph 32.2 mph N/A   Unknown
11:25 AM 57.0 °F - 39.2 °F 51% 29.70 in - SSW 18.4 mph 38.0 mph N/A   Unknown
12:26 PM 56.7 °F - 39.4 °F 52% 29.67 in - SSW 16.1 mph 25.3 mph N/A   Unknown
1:25 PM 55.2 °F - 39.9 °F 56% 29.64 in - SSW 17.3 mph 26.5 mph N/A   Unknown
2:25 PM 53.2 °F - 38.7 °F 58% 29.61 in - South 15.0 mph 38.0 mph N/A   Unknown
3:25 PM 55.4 °F - 39.9 °F 56% 29.58 in - South 17.3 mph 25.3 mph N/A   Unknown
4:25 PM 55.4 °F - 40.5 °F 57% 29.57 in - SSW 19.6 mph 31.1 mph N/A   Unknown
5:25 PM 53.1 °F - 40.1 °F 61% 29.56 in - SSW 13.8 mph 26.5 mph N/A   Unknown
6:25 PM 50.2 °F - 43.3 °F 77% 29.54 in - SSW 12.7 mph 21.9 mph 0.00 in   Unknown
7:25 PM 48.7 °F - 45.0 °F 87% 29.49 in - SSW 15.0 mph 20.7 mph 0.02 in   Unknown
8:25 PM 49.8 °F - 45.1 °F 84% 29.46 in - SSW 16.1 mph 25.3 mph 0.01 in   Unknown
9:25 PM 50.5 °F - 43.5 °F 77% 29.39 in - South 17.3 mph 26.5 mph N/A   Unknown
10:25 PM 45.5 °F 39.9 °F 42.8 °F 90% 29.42 in - WSW 11.5 mph 26.5 mph 0.01 in   Unknown
11:25 PM 38.7 °F 33.6 °F 39.4 °F 100% 29.49 in - Variable 6.9 mph 16.1 mph 0.08 in   Unknown